Regional Weather Roundup
Issued by NWS San Angelo, TX

Home | Current Version | Previous Version | Text Only | Print | Product List | Glossary On
Versions: 1 2 3 4 5 6 7 8 9 10 11 12 13 14 15 16 17 18 19 20 21 22 23 24 25 26 27 28 29 30 31 32 33 34 35 36 37 38 39 40 41 42 43 44 45 46 47 48 49 50
000
ASUS44 KSJT 262302
RWRSJT
WEST CENTRAL TEXAS REGIONAL WEATHER ROUNDUP
NATIONAL WEATHER SERVICE SAN ANGELO TX
600 PM CDT SUN MAR 26 2017

NOTE: "FAIR" INDICATES FEW OR NO CLOUDS BELOW 12,000 FEET WITH NO
SIGNIFICANT WEATHER AND/OR OBSTRUCTIONS TO VISIBILITY.

TXZ049-054-064>066-071>073-076>078-098-099-113-114-127-128-139-140-
154-155-168>170-270000
...LOCATIONS ACROSS WEST CENTRAL TEXAS...

CITY           SKY/WX    TMP DP  RH WIND       PRES   REMARKS
SAN ANGELO     SUNNY     86  23  10 W18G25    29.75S
ABILENE        SUNNY     82  30  15 W15G26    29.75R
DYESS AFB      NOT AVBL
JUNCTION       MOSUNNY   88  48  25 S12       29.74F
SWEETWATER     NOT AVBL
BROWNWOOD      CLOUDY    84  52  32 NW13      29.70F
COLEMAN        PTCLDY    84  45  25 W10G17    29.73F
SONORA         SUNNY     86  27  11 VRB6G20   29.79F
OZONA            N/A     86  30  13 MISG      29.79S
BRADY          NOT AVBL
$$

TEXAS PANHANDLE/OKLAHOMA PANHANDLE

CITY           SKY/WX    TMP DP  RH WIND       PRES   REMARKS
AMARILLO       MOSUNNY   70  35  27 N22G29    29.77R
BORGER         SUNNY     63  39  41 N23G33    29.79R
CANADIAN       CLOUDY    63  45  52 NW25G33   29.73R
DALHART        SUNNY     62  37  39 N22       29.82R
DUMAS          CLEAR     57  37  48 N17G29    29.83R
GUYMON         NOT AVBL
HEREFORD       CLEAR     72  32  23 N22G32    29.79R
PAMPA          CLEAR     66  40  39 N25       29.77R
PERRYTON       MOSUNNY   60  45  56 N22       29.77R
$$

SOUTHERN PANHANDLE/SOUTH PLAINS/ROLLING PLAINS

CITY           SKY/WX    TMP DP  RH WIND       PRES   REMARKS
LUBBOCK        MOSUNNY   78  16   9 W22G37    29.75S
SNYDER         SUNNY     81  29  15 W16G23    29.76S
CHILDRESS      SUNNY     83  21  10 W17G35    29.67S
SEMINOLE       CLEAR     78  21  12 SW17      29.80S
$$

PERMIAN BASIN

CITY           SKY/WX    TMP DP  RH WIND       PRES   REMARKS
MIDLAND        SUNNY     82  22  11 W23G35    29.79S
ODESSA           N/A     81  32  17 MISG      29.80S
WINK           SUNNY     81  20  10 W22G30    29.78F
$$

FAR WEST/SOUTHWEST MOUNTAINS/TRANS PECOS

CITY           SKY/WX    TMP DP  RH WIND       PRES   REMARKS
ALPINE         CLEAR     77  18  10 W22G30    29.96S
DRYDEN           N/A     90   9   5 SW16G25   29.74F
EL PASO        MOSUNNY   75  14  10 W20G29    29.89F
FORT STOCKTON  SUNNY     83  24  11 NW18G24   29.81S
GUADALUPE PASS   N/A    N/A N/A N/A MISG        N/A
MARFA          SUNNY     75  19  12 W24G30    29.95F
PECOS          CLEAR     81  25  12 W17G32    29.80F
$$

DALLAS/FORT WORTH METROPLEX

CITY           SKY/WX    TMP DP  RH WIND       PRES   REMARKS
DFW AIRPORT    CLOUDY    82  61  48 S16G26    29.71F
FTW MEACHAM    CLOUDY    82  58  43 S18G28    29.69F
DAL-EXECUTIVE  CLOUDY    81  61  50 S14G24    29.72F
GRAND PRAIRIE  SUNNY     81  59  47 SE14G20   29.73F
ADDISON        SUNNY     81  59  47 S16G23    29.73F
MESQUITE       CLOUDY    79  61  53 SE12      29.76S
LANCASTER      CLOUDY    79  61  54 S12       29.75F
$$

NORTH CENTRAL TEXAS

CITY           SKY/WX    TMP DP  RH WIND       PRES   REMARKS
SHRMAN/DENISON MOCLDY    77  60  54 S13       29.74F
GAINESVILLE    CLOUDY    77  60  55 S15       29.72F
BRIDGEPORT     TSTM      78  55  44 S6        29.69F
DENTON         CLOUDY    78  62  57 S16       29.70F
WAXAHACHIE     CLOUDY    81  62  52 S13G22    29.74F
GRANBURY       CLOUDY    83  58  41 SE18G25   29.70F
$$

WESTERN NORTH TEXAS

CITY           SKY/WX    TMP DP  RH WIND       PRES   REMARKS
WICHITA FALLS  MOSUNNY   81  50  33 SW16      29.68F
VERNON         CLOUDY    82  20  10 S13       29.68F
BRECKENRIDGE   NOT AVBL
COMANCHE       CLOUDY    85  53  33 NW5       29.70S
$$

CENTRAL AND SOUTH CENTRAL TEXAS

CITY           SKY/WX    TMP DP  RH WIND       PRES   REMARKS
AUSTIN/BERGSTM MOSUNNY   85  56  37 S21G28    29.75F
WACO           MOSUNNY   80  61  52 S17G26    29.73F
HILLSBORO      PTCLDY    82  63  52 SE18G24   29.73F
TEMPLE         PTSUNNY   81  61  50 S16       29.75F
KILLEEN-GRAY   PTSUNNY   81  60  48 SE21      29.73F
FORT HOOD      MOSUNNY   82  59  44 S18       29.72F
GEORGETOWN     MOSUNNY   82  57  42 S15G22    29.74F
LAGO VISTA     FAIR      84  55  37 S14G21    29.77F
SAN MARCOS     SUNNY     84  57  39 SE20G26   29.77F
NEW BRAUNFELS  SUNNY     85  54  34 S21G29    29.75F
RANDOLPH AFB   SUNNY     84  61  46 SE16      29.75F
SAN ANTONIO    MOSUNNY   85  56  37 S20       29.75F
STINSON        SUNNY     87  57  35 S16G22    29.72F
PLEASANTON     NOT AVBL
LA GRANGE      MOSUNNY   82  68  64 S9        29.78S
GIDDINGS       PTCLDY    81  62  53 S9G21     29.79F
$$

EAST TEXAS

CITY           SKY/WX    TMP DP  RH WIND       PRES   REMARKS
PARIS          CLOUDY    79  61  53 S20       29.79R
CLARKSVILLE    NOT AVBL
TYLER          PTSUNNY   81  56  42 S14G26    29.79F
LONGVIEW       PTSUNNY   81  60  48 S14       29.81F
PALESTINE      CLEAR     82  60  47 SE10G17   29.81S
NACOGDOCHES    SUNNY     82  57  42 S16G23    29.81F
$$

TEXAS HILL COUNTRY AND EDWARDS PLATEAU

CITY           SKY/WX    TMP DP  RH WIND       PRES   REMARKS
LLANO          NOT AVBL
HORSESHOE BAY  FAIR      85  56  36 S12       29.76R
KERRVILLE      MOSUNNY   84  58  42 S15       29.78S
FREDERICKSBRG  NOT AVBL
ROCKSPRINGS    NOT AVBL
HONDO          SUNNY     88  57  34 S15G23    29.74F
UVALDE         CLEAR     87  57  35 CALM      29.73F
DEL RIO        SUNNY     90  37  15 S7        29.70F
$$

SOUTHEAST TEXAS

CITY           SKY/WX    TMP DP  RH WIND       PRES   REMARKS
COLLEGE STN    MOSUNNY   82  60  47 S18G26    29.79S
CALDWELL       NOT AVBL
CROCKETT       NOT AVBL
BRENHAM        MOSUNNY   81  63  53 S16G24    29.81S
HUNTSVILLE     MOSUNNY   80  62  54 SE7       29.81F
CONROE         SUNNY     78  63  59 SE17G28   29.84S
HOUSTON BUSH   MOSUNNY   80  62  54 S16G25    29.84F
HOUSTON HOBBY  MOSUNNY   77  67  71 SE13G21   29.85F
PERLAND        MOSUNNY   78  66  66 S14G23    29.88S
WHARTON        PTCLDY    77  65  66 SE18      29.84F
$$

THE UPPER TEXAS COAST

CITY           SKY/WX    TMP DP  RH WIND       PRES   REMARKS
ORANGE         CLOUDY    76  68  76 S12G20    29.92S
PORT ARTHUR    PTSUNNY   77  67  71 S15G21    29.89F
GALVESTON      SUNNY     77  70  79 SE15      29.88F
ANGLETON       PTSUNNY   78  68  71 S20       29.86S
BAY CITY       CLOUDY    77  69  76 SE17      29.85S
$$

TEXAS COASTAL BEND, RIO GRANDE PLAINS DEEP SOUTH TEXAS

CITY           SKY/WX    TMP DP  RH WIND       PRES   REMARKS
VICTORIA       CLOUDY    78  67  68 SE25      29.81F
BEEVILLE       MOCLDY    80  71  74 SE16G23   29.77S
ROCKPORT       PTSUNNY   77  69  76 SE16G25   29.79F
PORT ARANSAS   PTCLDY    75  69  81 SE14G20   29.79F
PORT LAVACA    CLOUDY    77  71  81 S17G26    29.83F
CORPUS CHRISTI PTSUNNY   79  69  71 SE28G38   29.77S
KINGSVILLE NAS PTSUNNY   82  72  71 SE21G30   29.75S
COTULLA        SUNNY     93  53  25 SE15      29.69F
LAREDO         SUNNY     93  60  33 SE9       29.69F
BROWNSVILLE    NOT AVBL
PORT ISABEL    CLOUDY    80  70  71 SE26      29.76S
HEBBRONVILLE   CLEAR     86  61  42 S12G17    29.74S
MCALLEN        MOSUNNY   85  69  58 SE23G30   29.74F
WESLACO        PTSUNNY   82  68  63 S22G28    29.73F
FALFURRIAS     CLEAR     87  64  46 S18       29.72F
EDINBURG       PTCLDY    87  66  50 S16G23    29.74S
$$




USA.gov is the U.S. government's official web portal to all federal, state and local government web resources and services.